This is the latest recevied weather packets stored in our database for station/object N8QQQ. If no packets are shown the sender has not sent any weather packets the latest 10 day(s).
| Time | Temp. | Humidity | Pressure | Rain* | Wind** | Luminosity | Snow |
|---|---|---|---|---|---|---|---|
| 1777943931 | 7.78° C | 50% | 997.2 hPa | 0 mm | - | 0 W/m² | - |
| 1777943627 | 8.33° C | 50% | 997.1 hPa | 0 mm | - | 1 W/m² | - |
| 1777943324 | 8.33° C | 49% | 997.1 hPa | 0 mm | - | 1 W/m² | - |
| 1777943019 | 8.33° C | 49% | 997 hPa | 0 mm | - | 2 W/m² | - |
| 1777942716 | 8.33° C | 50% | 997.2 hPa | 0 mm | - | 3 W/m² | - |
| 1777942413 | 8.89° C | 48% | 996.8 hPa | 0 mm | - | 4 W/m² | - |
| 1777942111 | 8.89° C | 48% | 996.8 hPa | 0 mm | - | 6 W/m² | - |
| 1777941806 | 9.44° C | 47% | 996.7 hPa | 0 mm | - | 8 W/m² | - |
| 1777941504 | 9.44° C | 47% | 996.8 hPa | 0 mm | - | 10 W/m² | - |
| 1777941201 | 9.44° C | 47% | 996.5 hPa | 0 mm | - | 12 W/m² | - |
| 1777940897 | 10° C | 46% | 996.6 hPa | 0 mm | - | 15 W/m² | - |
| 1777940594 | 10° C | 45% | 996.3 hPa | 0 mm | - | 15 W/m² | - |
| 1777940293 | 10.56° C | 45% | 996.2 hPa | 0 mm | - | 23 W/m² | - |
| 1777939989 | 10.56° C | 45% | 996 hPa | 0 mm | - | 28 W/m² | - |
| 1777939687 | 10.56° C | 45% | 996.3 hPa | 0 mm | - | 32 W/m² | - |
| 1777939384 | 11.11° C | 46% | 996 hPa | 0 mm | - | 35 W/m² | - |
| 1777939081 | 11.11° C | 46% | 996.1 hPa | 0 mm | - | 42 W/m² | - |
| 1777938777 | 11.11° C | 46% | 995.8 hPa | 0 mm | - | 41 W/m² | - |
| 1777938474 | 11.67° C | 45% | 996 hPa | 0 mm | - | 61 W/m² | - |
| 1777938172 | 11.67° C | 44% | 995.6 hPa | 0 mm | - | 67 W/m² | - |
| 1777937868 | 11.67° C | 46% | 995.7 hPa | 0 mm | - | 55 W/m² | - |
| 1777937564 | 11.67° C | 45% | 995.6 hPa | 0 mm | - | 72 W/m² | - |
| 1777937261 | 12.22° C | 44% | 995.4 hPa | 0 mm | - | 63 W/m² | - |
| 1777936958 | 12.22° C | 44% | 995.4 hPa | 0 mm | - | 111 W/m² | - |
| 1777936655 | 12.78° C | 44% | 995.2 hPa | 0 mm | - | 103 W/m² | - |
* Rain latest hour (hover to see other rain measurements)
** Current wind speed in m/s (hover to see current wind gust speed)